User: anonymous   Login
Location: Blanot
(47.1713°N, 4.2340°E)
Time: 23:27:14
(UTC+00:00)
Language:

CZ-2D R/B - Orbit

View from above orbital plane
View from above orbital plane
View from above satellite
View from above satellite

Ground track
Ground track

The orbit data is extracted from the following two-line orbital elements,

1 37932U 11068C   20273.42456562 +.00000006 +00000-0 +22103-4 0  9996
2 37932 098.6616 207.7488 0037330 162.1867 305.3572 14.22044818459822
Epoch (UTC): 29 September 2020 10:11:22
Eccentricity: 0.0037330
inclination: 98.6616°
perigee height: 791 km
apogee height: 845 km
right ascension of ascending node: 207.7488°
argument of perigee: 162.1867°
revolutions per day: 14.22044818
mean anomaly at epoch: 305.3572°
orbit number at epoch: 45982

The dashed part of the orbit path shows where the satellite is in the earth's shadow,  

DLR